Flag for Poland Weather past 2 weeks in Gdynia, Poland

Now
36 °F

Partly sunny.


Feels Like: 27 °F
Forecast: 31 / 35 °F
Wind: 12 mph from Southwest

Location: Gdansk-Rebiechowo

Current Time: Jan 29, 2015 at 12:07:22 PM

Latest Report: Jan 29, 2015 at 11:30 AM


Visibility: N/A

Pressure: 29.18 "Hg

Humidity: 81%

Dew point: 30 °F

Location of GdyniaLocation

Historic Weather in Gdynia — Graph

°F

Gdynia temperature yesterday

Maximum temperature yesterday: 36 °F (at 8:00 PM)
Minimum temperature yesterday: 32 °F (at 5:00 AM)
Average temperature yesterday: 34 °F

Past Weeks' High & Low Weather Summary

 TemperatureHumidityPressure
High46 °F (Jan 16, 11:30 AM)100% (Jan 15, 6:00 AM)30.24 "Hg (Jan 15, 6:00 AM)
Low21 °F (Jan 24, 5:00 AM)62% (Jan 16, 12:30 PM)29.12 "Hg (Jan 29, 3:00 AM)
Average33 °F91%29.91 "Hg
* Reported Jan 14 11:00 AM — Jan 29 11:00 AM, Gdynia, Weather by CustomWeather, © 2014

Note: Actual official high and low records may vary slightly from our data, if they occured in-between our weather recording intervals... More about our weather records

Advertising

Gdynia weather history for previous 24 hours

 ConditionsComfort  
Time TempWeatherWind HumidityBarometerVisibility
11:00 AM
Jan 29
36 °FBroken clouds.12 mph81%29.18 "HgN/A
10:30 AM36 °FBroken clouds.12 mph81%29.18 "HgN/A
10:00 AM36 °FBroken clouds.12 mph81%29.15 "HgN/A
9:30 AM36 °FPartly sunny.12 mph81%29.15 "HgN/A
9:00 AM34 °FPartly sunny.13 mph87%29.15 "HgN/A
8:30 AM34 °FPartly sunny.12 mph87%29.15 "HgN/A
8:00 AM34 °FPartly sunny.12 mph93%29.15 "HgN/A
7:30 AM34 °FPassing clouds.10 mph93%29.15 "HgN/A
7:00 AM34 °FPassing clouds.12 mph93%29.12 "Hg5 mi
6:30 AM34 °FPartly cloudy.10 mph93%29.12 "Hg4 mi
6:00 AM34 °FPartly cloudy.12 mph93%29.12 "Hg4 mi
5:30 AM34 °FPartly cloudy.10 mph93%29.12 "Hg4 mi
5:00 AM34 °FPassing clouds.10 mph93%29.12 "Hg4 mi
4:30 AM34 °FLight snow. Fog.10 mph93%29.12 "Hg3 mi
4:00 AM34 °FSnow. Fog.12 mph93%29.12 "Hg3 mi
3:30 AM34 °FLight snow. Passing clouds.13 mph93%29.12 "Hg4 mi
3:00 AM34 °FLight snow. Passing clouds.14 mph93%29.12 "Hg5 mi
2:30 AM34 °FPassing clouds.13 mph93%29.15 "HgN/A
2:00 AM36 °FPassing clouds.14 mph81%29.15 "HgN/A
1:30 AM36 °FLight snow. Passing clouds.15 mph81%29.18 "HgN/A
1:00 AM36 °FPassing clouds.15 mph81%29.18 "HgN/A
12:30 AM36 °FPassing clouds.10 mph81%29.21 "HgN/A
12:00 AM36 °FPassing clouds.13 mph81%29.24 "HgN/A
11:30 PM
Jan 28
36 °FPassing clouds.13 mph81%29.27 "HgN/A
11:00 PM36 °FPassing clouds.14 mph81%29.27 "HgN/A
10:30 PM36 °FPassing clouds.16 mph81%29.30 "HgN/A
10:00 PM36 °FPassing clouds.15 mph81%29.33 "HgN/A
9:30 PM36 °FPassing clouds.14 mph87%29.36 "HgN/A
9:00 PM36 °FPassing clouds.16 mph87%29.39 "HgN/A
8:30 PM36 °FPassing clouds.14 mph87%29.42 "HgN/A
8:00 PM36 °FPassing clouds.14 mph87%29.45 "HgN/A
7:30 PM34 °FLow clouds.13 mph93%29.45 "HgN/A
7:00 PM34 °FLow clouds.13 mph93%29.47 "HgN/A
6:30 PM34 °FLow clouds.12 mph93%29.50 "HgN/A
6:00 PM34 °FLow clouds.13 mph93%29.53 "HgN/A
5:30 PM34 °FLow clouds.10 mph93%29.56 "HgN/A
5:00 PM34 °FLow clouds.12 mph93%29.56 "HgN/A
4:30 PM34 °FPassing clouds.9 mph93%29.59 "HgN/A
4:00 PM34 °FPartly sunny.10 mph93%29.59 "HgN/A
3:30 PM34 °FPartly sunny.9 mph93%29.62 "HgN/A
3:00 PM34 °FPartly sunny.8 mph93%29.65 "HgN/A
2:30 PM34 °FPartly sunny.8 mph93%29.65 "HgN/A
2:00 PM34 °FPartly sunny.7 mph93%29.68 "HgN/A
1:30 PM34 °FPartly sunny.8 mph93%29.68 "HgN/A
1:00 PM34 °FPartly sunny.7 mph87%29.71 "HgN/A
12:30 PM34 °FPartly sunny.6 mph87%29.71 "HgN/A
12:00 PM34 °FPartly sunny.6 mph87%29.71 "HgN/A
Weather by CustomWeather, © 2014

See weather overviewHow to use our weather pages